Wind_Speed
51 51 50 50 51 51 51 52 53 53 54 54 54 55 55 55 55 56 56 55 56 56 56 57 57 58 58 58 58 58 58 58 58 58 59 59 58 58
51 51 51 51 52 52 51 52 53 54 54 54 54 55 55 55 55 55 55 56 56 57 57 58 58 59 59 59 59 59 59 59 59 60 60 60 60 60
51 51 51 52 52 52 52 53 53 53 54 54 55 55 55 55 55 55 55 56 57 57 57 58 58 59 59 59 59 59 60 60 60 60 60 60 61 61
51 51 51 52 53 53 53 54 54 54 54 54 54 54 54 55 55 55 55 56 57 57 58 58 58 58 59 59 59 60 60 61 61 60 61 61 61 61
52 52 52 52 53 54 54 54 54 54 54 55 55 55 55 56 56 56 56 56 56 57 57 57 57 58 59 60 60 60 60 61 61 61 61 61 61 61
52 52 53 53 53 54 54 54 55 55 54 54 55 55 55 56 56 56 56 56 56 57 57 57 57 58 59 60 60 60 60 61 62 62 61 61 61 61
53 53 53 53 54 54 54 54 55 55 55 55 54 55 55 56 56 56 56 57 57 57 57 56 57 58 58 59 59 60 60 60 61 61 62 62 61 61
53 54 53 53 54 54 54 54 54 54 54 54 54 54 54 55 56 56 56 56 56 56 56 56 57 57 57 57 57 58 59 59 59 60 60 61 61 60
53 53 54 54 54 54 54 54 53 53 53 53 53 53 54 54 55 54 55 55 55 55 56 56 57 56 56 56 56 57 57 57 57 58 59 59 59 60
52 52 53 53 54 54 54 54 53 54 53 53 53 53 54 53 53 53 53 53 53 53 54 54 55 55 55 55 55 55 55 55 55 56 56 57 58 58
52 52 52 53 54 54 54 53 52 52 53 53 52 53 52 52 52 51 51 51 51 51 51 52 52 52 52 52 52 52 53 53 54 54 54 55 56 57
51 51 51 51 52 52 52 52 52 51 51 52 51 51 51 51 50 49 48 49 50 49 50 50 50 51 50 50 50 50 50 51 51 52 52 53 54 55
50 50 50 51 50 51 51 51 51 51 51 50 50 50 50 49 49 48 48 48 48 49 48 49 48 49 49 48 48 48 49 49 50 50 50 50 51 51
49 50 50 49 49 49 50 49 50 50 49 49 48 48 48 48 48 48 48 48 47 48 48 48 47 47 47 47 47 47 47 48 47 47 47 48 49 50
48 48 49 48 47 47 48 48 48 49 49 49 49 48 47 47 47 47 48 47 47 47 47 47 47 47 47 46 46 46 46 45 45 46 46 47 48 49
46 46 46 47 47 46 46 47 47 47 48 48 47 47 48 47 47 47 47 47 47 46 46 47 47 46 46 45 45 44 44 44 43 44 45 45 45 46
44 44 45 45 45 45 45 46 46 45 45 45 45 45 45 45 45 45 45 45 45 44 44 45 45 44 44 44 43 42 42 42 42 43 43 43 44 45
42 42 42 43 44 44 44 44 44 44 43 43 42 42 42 42 42 42 42 43 43 43 43 43 43 43 42 41 41 40 40 40 41 41 42 42 42 42
41 40 40 40 40 41 42 42 42 42 42 42 41 41 41 41 41 41 41 41 41 41 41 42 42 41 41 40 40 40 40 40 40 40 40 40 40 41
40 40 40 39 39 39 39 40 41 41 41 41 41 41 41 41 41 40 40 40 40 40 40 40 40 40 39 38 38 39 40 39 39 39 39 40 39 40
39 39 39 39 39 38 38 39 39 39 40 40 40 39 39 39 39 39 39 39 39 39 39 39 39 38 38 37 37 37 38 38 39 39 39 39 38 38
38 38 38 37 37 37 37 37 37 38 38 38 38 38 38 37 37 37 37 37 37 37 37 37 37 37 37 36 36 36 37 38 38 38 38 38 38 37
37 37 37 36 36 36 36 36 36 36 36 37 37 37 36 36 36 36 36 36 36 36 36 36 36 37 37 36 36 36 36 37 37 37 37 37 37 37
Wind_Direction
261 260 259 260 262 262 261 261 261 261 261 262 263 263 264 264 264 264 264 264 265 265 266 266 265 265 264 265 265 266 266 266 267 268 268 269 270 270
259 259 259 261 262 262 262 261 262 262 262 262 262 263 264 263 264 264 264 265 266 266 267 266 266 265 264 264 265 266 266 267 268 268 269 269 270 270
260 261 262 261 262 261 261 262 262 263 263 263 263 263 263 264 264 265 266 266 267 267 267 267 266 265 264 264 265 266 267 268 268 269 269 270 270 270
261 262 262 262 262 262 262 263 263 264 264 263 263 263 263 264 265 266 266 267 267 268 268 267 267 266 265 265 265 266 267 268 269 269 269 270 271 270
262 263 263 263 263 264 263 263 264 264 264 263 263 263 264 265 265 266 267 267 267 268 268 267 267 267 266 266 266 267 268 268 269 269 269 270 270 270
262 263 263 264 264 265 264 264 265 264 264 263 263 263 264 265 266 267 268 268 268 267 267 267 267 267 268 268 267 268 268 268 268 269 269 269 270 270
263 263 264 265 265 265 265 265 265 264 264 263 263 263 264 265 266 267 268 268 268 267 266 267 267 268 269 269 269 269 268 268 268 268 269 269 269 269
263 263 264 265 264 265 266 266 265 264 264 263 263 264 264 265 266 266 268 268 268 268 267 267 269 269 270 269 269 269 269 269 269 269 269 270 270 269
263 263 264 264 264 264 265 264 264 264 264 264 264 264 265 266 266 267 267 269 269 269 268 269 270 270 270 270 270 270 270 269 269 269 269 270 270 270
262 262 263 263 264 264 264 263 263 263 263 263 264 265 266 266 266 267 267 268 269 269 270 270 270 270 270 269 270 270 270 270 269 269 270 270 271 271
262 263 263 263 263 263 263 263 263 263 263 264 264 264 265 265 265 266 267 267 268 269 270 270 270 270 269 269 270 270 271 271 271 271 271 272 272 272
262 263 263 262 262 262 262 262 262 262 263 264 264 264 264 264 264 265 266 267 268 270 270 270 270 270 269 269 269 270 271 272 272 272 273 272 272 273
264 264 263 263 262 261 262 261 261 262 262 263 263 263 263 263 263 264 265 266 268 269 270 269 270 271 271 269 269 270 272 273 273 273 273 274 275 274
265 264 263 263 262 261 261 262 262 262 261 261 262 263 263 263 263 263 264 266 267 268 269 269 270 271 271 271 270 271 273 274 275 275 275 276 275 276
266 264 262 261 261 261 261 262 262 261 261 261 262 263 263 263 263 264 265 266 267 269 269 270 271 272 272 273 273 273 273 274 275 276 276 276 277 277
265 263 262 260 260 261 261 261 262 262 262 262 262 263 264 263 264 265 266 266 267 268 269 270 271 272 272 273 274 274 273 274 274 275 276 277 278 279
264 263 262 261 261 261 261 261 261 261 260 261 262 263 263 263 265 265 266 265 265 267 269 270 271 271 272 272 273 273 273 273 274 275 277 278 279 281
264 264 263 262 261 262 261 260 260 261 261 260 261 262 262 262 264 265 266 266 266 267 268 269 269 270 270 270 271 272 272 273 275 276 279 280 280 281
264 263 263 263 263 263 262 261 261 261 261 261 261 261 263 264 264 265 265 266 267 267 268 268 269 269 269 268 269 271 272 274 276 277 279 280 281 281
264 264 263 263 263 263 262 262 261 261 262 261 261 261 262 263 264 265 264 265 265 266 267 268 268 269 269 269 269 270 273 275 277 278 279 281 282 283
262 263 263 263 262 261 261 261 260 261 261 261 261 261 262 262 263 263 263 263 264 266 266 267 268 269 269 269 269 270 273 275 277 278 280 281 283 283
261 261 262 262 261 261 260 259 259 260 259 260 260 260 260 261 261 262 262 263 264 265 266 267 267 268 269 269 270 270 272 274 277 280 282 284 285 283
260 260 261 261 261 260 259 259 259 259 259 259 259 259 259 260 260 261 261 262 263 264 265 267 267 268 269 270 270 271 273 275 278 279 281 284 285 285
Height
5629 5631 5633 5635 5637 5638 5640 5642 5646 5648 5651 5653 5654 5655 5656 5658 5659 5660 5662 5663 5664 5665 5665 5666 5667 5669 5671 5673 5674 5676 5677 5678 5679 5680 5681 5681 5682 5682
5616 5618 5619 5621 5623 5624 5626 5627 5630 5632 5635 5638 5639 5640 5641 5642 5644 5645 5646 5647 5648 5649 5649 5650 5650 5652 5653 5655 5657 5659 5660 5661 5662 5663 5664 5664 5665 5665
5602 5604 5605 5607 5608 5610 5611 5613 5615 5617 5619 5622 5623 5624 5626 5627 5628 5629 5630 5631 5632 5632 5632 5633 5634 5634 5636 5638 5640 5641 5643 5644 5645 5646 5646 5647 5648 5649
5588 5590 5591 5592 5594 5595 5597 5598 5600 5601 5604 5606 5607 5608 5610 5612 5613 5614 5614 5615 5616 5616 5616 5616 5617 5618 5619 5621 5623 5624 5625 5626 5627 5628 5629 5631 5631 5630
5574 5575 5576 5577 5579 5580 5582 5583 5585 5586 5588 5590 5592 5593 5595 5596 5597 5598 5598 5599 5600 5600 5600 5600 5601 5602 5603 5604 5605 5607 5608 5610 5611 5611 5611 5612 5612 5613
5559 5560 5562 5563 5564 5565 5566 5568 5569 5571 5572 5574 5576 5578 5579 5580 5581 5582 5583 5583 5584 5584 5584 5585 5585 5586 5587 5588 5590 5590 5590 5591 5591 5593 5593 5594 5595 5595
5544 5545 5546 5547 5548 5550 5551 5553 5554 5555 5557 5558 5560 5562 5563 5564 5566 5566 5567 5568 5568 5568 5569 5570 5570 5571 5571 5571 5571 5572 5572 5572 5573 5574 5575 5576 5576 5577
5529 5530 5531 5532 5533 5534 5535 5537 5538 5540 5541 5543 5544 5546 5548 5549 5549 5550 5551 5552 5553 5554 5553 5554 5554 5554 5555 5555 5555 5555 5555 5555 5555 5556 5557 5558 5558 5559
5513 5514 5515 5516 5517 5518 5520 5521 5522 5524 5526 5527 5529 5530 5532 5533 5534 5534 5535 5535 5537 5538 5537 5539 5538 5538 5538 5538 5538 5538 5538 5538 5538 5539 5539 5540 5540 5541
5497 5498 5499 5500 5501 5502 5504 5505 5507 5509 5510 5511 5513 5515 5516 5517 5518 5518 5519 5520 5521 5522 5521 5523 5523 5523 5523 5522 5522 5522 5522 5522 5522 5522 5523 5523 5523 5523
5481 5482 5483 5484 5485 5486 5488 5490 5492 5493 5494 5495 5497 5498 5500 5501 5502 5503 5504 5504 5506 5507 5507 5507 5507 5507 5508 5508 5507 5507 5506 5506 5506 5506 5506 5506 5506 5506
5465 5466 5468 5469 5470 5470 5472 5474 5477 5478 5479 5480 5482 5483 5484 5485 5486 5488 5489 5490 5492 5493 5493 5492 5492 5492 5494 5494 5493 5492 5492 5491 5491 5490 5490 5490 5489 5489
5449 5451 5452 5453 5455 5456 5457 5459 5461 5463 5464 5466 5467 5469 5470 5471 5472 5474 5475 5476 5477 5478 5478 5478 5478 5478 5478 5480 5480 5478 5477 5476 5476 5476 5475 5474 5474 5474
5434 5435 5437 5438 5440 5441 5442 5444 5446 5447 5449 5451 5453 5455 5456 5458 5459 5460 5461 5462 5463 5464 5464 5464 5464 5464 5464 5465 5465 5465 5463 5462 5462 5462 5461 5460 5460 5459
5419 5420 5422 5423 5425 5427 5428 5429 5431 5433 5435 5437 5439 5441 5442 5444 5445 5446 5447 5448 5449 5449 5450 5450 5450 5450 5450 5451 5451 5451 5450 5449 5448 5448 5447 5447 5446 5445
5404 5406 5408 5409 5411 5413 5414 5415 5417 5419 5421 5423 5425 5426 5428 5429 5431 5432 5433 5434 5435 5436 5436 5436 5436 5436 5436 5437 5436 5436 5435 5435 5435 5434 5434 5433 5432 5431
5391 5392 5394 5396 5398 5399 5401 5402 5403 5405 5407 5409 5410 5412 5414 5415 5417 5418 5419 5420 5421 5422 5423 5423 5422 5422 5422 5423 5423 5423 5422 5422 5422 5421 5421 5420 5419 5417
5378 5380 5381 5382 5384 5386 5387 5389 5390 5392 5394 5395 5397 5399 5400 5402 5403 5405 5406 5407 5408 5409 5409 5410 5410 5410 5410 5410 5410 5410 5410 5409 5409 5408 5407 5407 5406 5404
5365 5367 5368 5370 5371 5372 5374 5376 5378 5379 5381 5382 5384 5386 5388 5389 5391 5392 5393 5394 5395 5396 5396 5397 5397 5397 5398 5399 5399 5397 5398 5398 5397 5396 5395 5394 5393 5392
5352 5354 5356 5357 5358 5360 5362 5363 5365 5366 5368 5370 5372 5374 5375 5376 5378 5379 5380 5382 5383 5384 5384 5385 5385 5386 5386 5387 5387 5386 5385 5385 5385 5385 5384 5383 5381 5379
5340 5342 5343 5345 5346 5348 5349 5351 5353 5355 5356 5358 5360 5361 5363 5364 5366 5367 5368 5370 5371 5372 5373 5373 5373 5374 5374 5375 5376 5376 5375 5374 5373 5372 5372 5371 5370 5368
5328 5330 5331 5333 5334 5336 5338 5339 5341 5343 5344 5346 5348 5349 5351 5352 5354 5355 5357 5358 5359 5360 5361 5361 5362 5362 5363 5364 5364 5364 5364 5363 5362 5360 5359 5358 5356 5355
5316 5318 5319 5321 5322 5324 5326 5327 5329 5331 5333 5335 5336 5338 5340 5341 5343 5344 5346 5347 5348 5349 5349 5350 5351 5351 5352 5352 5353 5353 5353 5352 5351 5350 5349 5346 5345 5343